GLO2665 SBVT-SBCF

Flight info

Callsign GLO2665
Flight time 0h 49m
Altitude 32000
Route OPLOX UZ34 NIPDA
Aircraft B738/M-SDE2E3FGHIRWXY/LB1

Departure

Time 2026-04-23 00:43
Airport Eurico de Aguiar Salles International Airport (SBVT)

Arrival

Time 2026-04-23 01:33
Airport Tancredo Neves International Airport (SBCF)
Time Latitude Longitude Altitude Speed Heading
2026-04-23 00:12 -20.26573 -40.28162 7 ft 0 kts 262°
2026-04-23 00:31 -20.26572 -40.28160 34 ft 2 kts 262°
2026-04-23 00:31 -20.26570 -40.28142 32 ft 2 kts 262°
2026-04-23 00:31 -20.26568 -40.28125 30 ft 2 kts 262°
2026-04-23 00:32 -20.26565 -40.28107 31 ft 2 kts 261°
2026-04-23 00:32 -20.26562 -40.28090 32 ft 2 kts 258°
2026-04-23 00:32 -20.26558 -40.28073 33 ft 2 kts 244°
2026-04-23 00:32 -20.26550 -40.28057 32 ft 2 kts 248°
2026-04-23 00:33 -20.26549 -40.28040 32 ft 2 kts 311°
2026-04-23 00:33 -20.26561 -40.28032 30 ft 1 kts 347°
2026-04-23 00:33 -20.26567 -40.28030 33 ft 0 kts 351°
2026-04-23 00:35 -20.26549 -40.28033 31 ft 5 kts 352°
2026-04-23 00:35 -20.26513 -40.28039 33 ft 5 kts 352°
2026-04-23 00:36 -20.26467 -40.28046 34 ft 10 kts 352°
2026-04-23 00:36 -20.26368 -40.28060 33 ft 16 kts 352°
2026-04-23 00:36 -20.26261 -40.28075 32 ft 15 kts 353°
2026-04-23 00:36 -20.26158 -40.28090 34 ft 15 kts 352°
2026-04-23 00:37 -20.26060 -40.28104 34 ft 14 kts 353°
2026-04-23 00:37 -20.25966 -40.28118 35 ft 13 kts 352°
2026-04-23 00:37 -20.25875 -40.28130 32 ft 13 kts 353°
2026-04-23 00:37 -20.25788 -40.28143 34 ft 13 kts 351°
2026-04-23 00:38 -20.25702 -40.28156 34 ft 12 kts 351°
2026-04-23 00:38 -20.25620 -40.28169 34 ft 12 kts 352°
2026-04-23 00:38 -20.25538 -40.28182 33 ft 12 kts 351°
2026-04-23 00:38 -20.25448 -40.28195 30 ft 14 kts 352°
2026-04-23 00:39 -20.25347 -40.28183 27 ft 15 kts 30°
2026-04-23 00:39 -20.25302 -40.28153 28 ft 0 kts 32°
2026-04-23 00:41 -20.25284 -40.28141 29 ft 5 kts 33°
2026-04-23 00:41 -20.25239 -40.28111 30 ft 12 kts 32°
2026-04-23 00:41 -20.25131 -40.28066 27 ft 22 kts 359°
2026-04-23 00:41 -20.24959 -40.28089 26 ft 26 kts 352°
2026-04-23 00:42 -20.24831 -40.28089 24 ft 11 kts 28°
2026-04-23 00:42 -20.24789 -40.28107 23 ft 5 kts 259°
2026-04-23 00:42 -20.24815 -40.28111 25 ft 4 kts 171°
2026-04-23 00:42 -20.24943 -40.28091 27 ft 59 kts 172°
2026-04-23 00:43 -20.25691 -40.27979 38 ft 153 kts 172°
2026-04-23 00:43 -20.26971 -40.27798 437 ft 205 kts 173°
2026-04-23 00:43 -20.28497 -40.27596 1242 ft 231 kts 173°
2026-04-23 00:43 -20.30157 -40.27355 2162 ft 250 kts 171°
2026-04-23 00:44 -20.31839 -40.27093 3065 ft 257 kts 171°
2026-04-23 00:44 -20.33607 -40.26822 3808 ft 262 kts 171°
2026-04-23 00:44 -20.35430 -40.26576 4548 ft 266 kts 178°
2026-04-23 00:45 -20.37229 -40.27021 5299 ft 270 kts 208°
2026-04-23 00:45 -20.38621 -40.28349 6083 ft 272 kts 236°
2026-04-23 00:45 -20.39288 -40.30225 6845 ft 275 kts 264°
2026-04-23 00:45 -20.39078 -40.32251 7563 ft 279 kts 289°
2026-04-23 00:46 -20.38188 -40.34091 7985 ft 281 kts 302°
2026-04-23 00:46 -20.37079 -40.35817 8116 ft 282 kts 305°
2026-04-23 00:46 -20.35937 -40.37520 8127 ft 283 kts 305°
2026-04-23 00:46 -20.34792 -40.39233 8134 ft 284 kts 305°
2026-04-23 00:47 -20.33667 -40.40935 8137 ft 284 kts 304°
2026-04-23 00:47 -20.32536 -40.42667 8133 ft 284 kts 304°
2026-04-23 00:47 -20.31411 -40.44401 8129 ft 284 kts 304°
2026-04-23 00:47 -20.30290 -40.46135 8133 ft 284 kts 304°
2026-04-23 00:48 -20.29095 -40.47832 8325 ft 289 kts 308°
2026-04-23 00:48 -20.27816 -40.49485 9189 ft 288 kts 309°
2026-04-23 00:48 -20.26530 -40.51122 10082 ft 289 kts 309°
2026-04-23 00:48 -20.25219 -40.52793 10593 ft 303 kts 309°
2026-04-23 00:49 -20.23834 -40.54564 10827 ft 326 kts 309°
2026-04-23 00:49 -20.22363 -40.56455 11375 ft 335 kts 309°
2026-04-23 00:49 -20.20868 -40.58383 12067 ft 339 kts 309°
2026-04-23 00:49 -20.19357 -40.60336 12776 ft 344 kts 309°
2026-04-23 00:50 -20.17824 -40.62318 13450 ft 349 kts 310°
2026-04-23 00:50 -20.16265 -40.64336 14101 ft 355 kts 310°
2026-04-23 00:50 -20.14684 -40.66383 14734 ft 359 kts 309°
2026-04-23 00:50 -20.13092 -40.68446 15432 ft 361 kts 309°
2026-04-23 00:51 -20.11490 -40.70519 16113 ft 364 kts 309°
2026-04-23 00:51 -20.09893 -40.72587 16779 ft 367 kts 309°
2026-04-23 00:51 -20.08258 -40.74702 17440 ft 371 kts 308°
2026-04-23 00:51 -20.06605 -40.76841 18099 ft 375 kts 308°
2026-04-23 00:52 -20.04940 -40.78994 18702 ft 379 kts 308°
2026-04-23 00:52 -20.03259 -40.81166 19268 ft 382 kts 308°
2026-04-23 00:52 -20.01567 -40.83352 19846 ft 384 kts 308°
2026-04-23 00:52 -19.99856 -40.85562 20422 ft 387 kts 308°
2026-04-23 00:53 -19.98162 -40.87749 20977 ft 390 kts 308°
2026-04-23 00:53 -19.96426 -40.89989 21514 ft 393 kts 308°
2026-04-23 00:53 -19.94684 -40.92236 22055 ft 396 kts 308°
2026-04-23 00:53 -19.92925 -40.94505 22587 ft 399 kts 308°
2026-04-23 00:54 -19.91152 -40.96791 23115 ft 401 kts 308°
2026-04-23 00:54 -19.89367 -40.99091 23634 ft 405 kts 308°
2026-04-23 00:54 -19.87685 -41.01445 24036 ft 407 kts 300°
2026-04-23 00:54 -19.86424 -41.04184 24418 ft 408 kts 289°
2026-04-23 00:55 -19.85676 -41.07051 24804 ft 409 kts 277°
2026-04-23 00:55 -19.85363 -41.10064 25199 ft 411 kts 273°
2026-04-23 00:55 -19.85133 -41.13102 25594 ft 414 kts 272°
2026-04-23 00:55 -19.84900 -41.16170 25987 ft 417 kts 272°
2026-04-23 00:56 -19.84641 -41.19250 26364 ft 420 kts 273°
2026-04-23 00:56 -19.84363 -41.22312 26746 ft 423 kts 273°
2026-04-23 00:56 -19.84068 -41.25469 27187 ft 424 kts 273°
2026-04-23 00:56 -19.83775 -41.28583 27718 ft 423 kts 272°
2026-04-23 00:57 -19.83491 -41.31639 28267 ft 421 kts 272°
2026-04-23 00:57 -19.83201 -41.34728 28780 ft 420 kts 272°
2026-04-23 00:57 -19.82910 -41.37827 29260 ft 421 kts 272°
2026-04-23 00:57 -19.82618 -41.40928 29766 ft 421 kts 272°
2026-04-23 00:58 -19.82328 -41.44016 30303 ft 419 kts 271°
2026-04-23 00:58 -19.82037 -41.47097 30775 ft 418 kts 271°
2026-04-23 00:58 -19.81749 -41.50158 31261 ft 416 kts 271°
2026-04-23 00:58 -19.81462 -41.53193 31708 ft 415 kts 271°
2026-04-23 00:59 -19.81175 -41.56242 32111 ft 416 kts 271°
2026-04-23 00:59 -19.80602 -41.62334 32127 ft 413 kts 271°
2026-04-23 01:00 -19.80029 -41.68419 32137 ft 414 kts 271°
2026-04-23 01:00 -19.79454 -41.74490 32131 ft 416 kts 271°
2026-04-23 01:01 -19.78873 -41.80613 32136 ft 417 kts 271°
2026-04-23 01:01 -19.78286 -41.86769 32138 ft 417 kts 271°
2026-04-23 01:02 -19.77701 -41.92874 32131 ft 416 kts 271°
2026-04-23 01:02 -19.77115 -41.98979 32130 ft 415 kts 271°
2026-04-23 01:03 -19.76532 -42.05029 32127 ft 413 kts 271°
2026-04-23 01:03 -19.75947 -42.11081 32124 ft 412 kts 272°
2026-04-23 01:04 -19.75348 -42.17149 32124 ft 412 kts 272°
2026-04-23 01:04 -19.74431 -42.26234 32119 ft 413 kts 272°
2026-04-23 01:05 -19.73822 -42.32266 32113 ft 414 kts 272°
2026-04-23 01:05 -19.73206 -42.38341 32112 ft 414 kts 272°
2026-04-23 01:06 -19.72587 -42.44438 32106 ft 415 kts 272°
2026-04-23 01:06 -19.71964 -42.50551 31872 ft 417 kts 272°
2026-04-23 01:07 -19.71649 -42.53589 31518 ft 412 kts 272°
2026-04-23 01:07 -19.71337 -42.56569 31128 ft 409 kts 272°
2026-04-23 01:07 -19.71024 -42.59564 30749 ft 407 kts 272°
2026-04-23 01:07 -19.70712 -42.62550 30360 ft 405 kts 272°
2026-04-23 01:08 -19.70401 -42.65520 29928 ft 403 kts 272°
2026-04-23 01:08 -19.70095 -42.68460 29468 ft 399 kts 272°
2026-04-23 01:08 -19.69793 -42.71384 29043 ft 396 kts 272°
2026-04-23 01:08 -19.69498 -42.74248 28628 ft 393 kts 272°
2026-04-23 01:09 -19.69202 -42.77115 28233 ft 390 kts 273°
2026-04-23 01:09 -19.68908 -42.79968 27828 ft 387 kts 273°
2026-04-23 01:09 -19.68616 -42.82794 27435 ft 384 kts 273°
2026-04-23 01:09 -19.68325 -42.85601 27048 ft 381 kts 273°
2026-04-23 01:10 -19.68036 -42.88388 26662 ft 378 kts 273°
2026-04-23 01:10 -19.67748 -42.91156 26282 ft 376 kts 274°
2026-04-23 01:10 -19.67462 -42.93906 25898 ft 374 kts 274°
2026-04-23 01:10 -19.67177 -42.96640 25523 ft 371 kts 274°
2026-04-23 01:11 -19.66893 -42.99358 25141 ft 369 kts 274°
2026-04-23 01:11 -19.66614 -43.02033 24758 ft 368 kts 274°
2026-04-23 01:11 -19.66332 -43.04732 24367 ft 367 kts 274°
2026-04-23 01:11 -19.66050 -43.07420 23985 ft 366 kts 274°
2026-04-23 01:12 -19.65786 -43.10101 23575 ft 364 kts 271°
2026-04-23 01:12 -19.65842 -43.12768 23155 ft 360 kts 262°
2026-04-23 01:12 -19.66302 -43.15360 22766 ft 356 kts 256°
2026-04-23 01:12 -19.66861 -43.17914 22394 ft 353 kts 255°
2026-04-23 01:13 -19.67421 -43.20408 22026 ft 350 kts 255°
2026-04-23 01:13 -19.67979 -43.22911 21658 ft 348 kts 256°
2026-04-23 01:13 -19.68527 -43.25405 21292 ft 345 kts 256°
2026-04-23 01:13 -19.69066 -43.27880 20916 ft 344 kts 256°
2026-04-23 01:14 -19.69598 -43.30346 20560 ft 342 kts 256°
2026-04-23 01:14 -19.70126 -43.32807 20201 ft 340 kts 256°
2026-04-23 01:14 -19.70651 -43.35261 19827 ft 339 kts 256°
2026-04-23 01:14 -19.71164 -43.37666 19462 ft 338 kts 256°
2026-04-23 01:15 -19.71691 -43.40134 19084 ft 338 kts 256°
2026-04-23 01:15 -19.72203 -43.42534 18722 ft 337 kts 256°
2026-04-23 01:15 -19.72721 -43.44968 18339 ft 337 kts 256°
2026-04-23 01:15 -19.73240 -43.47403 17941 ft 336 kts 256°
2026-04-23 01:16 -19.73754 -43.49817 17564 ft 334 kts 256°
2026-04-23 01:16 -19.74229 -43.52221 17188 ft 333 kts 262°
2026-04-23 01:16 -19.74259 -43.54668 16825 ft 332 kts 277°
2026-04-23 01:16 -19.73999 -43.56263 16603 ft 331 kts 280°
2026-04-23 01:17 -19.73406 -43.59350 16139 ft 322 kts 280°
2026-04-23 01:17 -19.72972 -43.61651 15800 ft 313 kts 280°
2026-04-23 01:17 -19.72563 -43.63900 15457 ft 306 kts 279°
2026-04-23 01:17 -19.72170 -43.66087 15157 ft 299 kts 279°
2026-04-23 01:18 -19.71917 -43.67512 14955 ft 294 kts 279°
2026-04-23 01:18 -19.71542 -43.69619 14650 ft 288 kts 279°
2026-04-23 01:18 -19.71174 -43.71685 14365 ft 281 kts 279°
2026-04-23 01:18 -19.70813 -43.73706 14081 ft 276 kts 279°
2026-04-23 01:19 -19.70099 -43.76252 13653 ft 270 kts 301°
2026-04-23 01:19 -19.69336 -43.77305 13482 ft 264 kts 315°
2026-04-23 01:19 -19.68016 -43.78555 13245 ft 252 kts 319°
2026-04-23 01:19 -19.66714 -43.79737 12966 ft 240 kts 319°
2026-04-23 01:20 -19.65470 -43.80866 12705 ft 229 kts 319°
2026-04-23 01:20 -19.64288 -43.81946 12443 ft 219 kts 319°
2026-04-23 01:20 -19.63164 -43.82979 12208 ft 208 kts 319°
2026-04-23 01:20 -19.62095 -43.83964 12017 ft 199 kts 319°
2026-04-23 01:21 -19.61044 -43.84935 11803 ft 203 kts 319°
2026-04-23 01:21 -19.59967 -43.85931 11606 ft 206 kts 319°
2026-04-23 01:21 -19.58897 -43.86920 11401 ft 206 kts 319°
2026-04-23 01:21 -19.57817 -43.87918 11191 ft 205 kts 319°
2026-04-23 01:22 -19.56741 -43.88913 10970 ft 205 kts 319°
2026-04-23 01:22 -19.55667 -43.89906 10757 ft 205 kts 319°
2026-04-23 01:22 -19.54593 -43.90899 10547 ft 204 kts 319°
2026-04-23 01:22 -19.53523 -43.91888 10328 ft 204 kts 319°
2026-04-23 01:23 -19.52456 -43.92874 10114 ft 203 kts 319°
2026-04-23 01:23 -19.51405 -43.93845 9874 ft 198 kts 319°
2026-04-23 01:23 -19.50377 -43.94795 9646 ft 194 kts 319°
2026-04-23 01:23 -19.49375 -43.95721 9433 ft 192 kts 319°
2026-04-23 01:24 -19.48370 -43.96650 9232 ft 191 kts 319°
2026-04-23 01:24 -19.47371 -43.97573 9031 ft 190 kts 319°
2026-04-23 01:24 -19.46368 -43.98499 8848 ft 192 kts 319°
2026-04-23 01:24 -19.45348 -43.99440 8640 ft 196 kts 319°
2026-04-23 01:25 -19.44296 -44.00410 8289 ft 205 kts 319°
2026-04-23 01:25 -19.43241 -44.01385 8023 ft 202 kts 318°
2026-04-23 01:25 -19.42503 -44.02596 7782 ft 194 kts 281°
2026-04-23 01:25 -19.42498 -44.03964 7620 ft 181 kts 259°
2026-04-23 01:26 -19.42722 -44.05263 7425 ft 177 kts 261°
2026-04-23 01:26 -19.42882 -44.06553 7250 ft 176 kts 260°
2026-04-23 01:26 -19.43101 -44.07829 7071 ft 175 kts 256°
2026-04-23 01:26 -19.43411 -44.09074 6890 ft 174 kts 251°
2026-04-23 01:27 -19.43854 -44.10267 6689 ft 173 kts 233°
2026-04-23 01:27 -19.44696 -44.11090 6549 ft 161 kts 210°
2026-04-23 01:27 -19.45697 -44.11512 6347 ft 154 kts 187°
2026-04-23 01:27 -19.46794 -44.11504 6182 ft 164 kts 167°
2026-04-23 01:28 -19.47789 -44.10958 6039 ft 157 kts 141°
2026-04-23 01:28 -19.48678 -44.10306 5827 ft 152 kts 145°
2026-04-23 01:28 -19.49527 -44.09679 5708 ft 143 kts 141°
2026-04-23 01:28 -19.50312 -44.09022 5556 ft 147 kts 139°
2026-04-23 01:29 -19.51106 -44.08313 5489 ft 149 kts 137°
2026-04-23 01:29 -19.51886 -44.07598 5385 ft 149 kts 136°
2026-04-23 01:29 -19.52657 -44.06883 5215 ft 146 kts 136°
2026-04-23 01:29 -19.53422 -44.06169 5039 ft 147 kts 136°
2026-04-23 01:30 -19.54185 -44.05459 4860 ft 146 kts 135°
2026-04-23 01:30 -19.54935 -44.04758 4664 ft 145 kts 135°
2026-04-23 01:30 -19.55692 -44.04051 4494 ft 146 kts 135°
2026-04-23 01:30 -19.56449 -44.03343 4304 ft 145 kts 136°
2026-04-23 01:31 -19.57204 -44.02639 4113 ft 144 kts 136°
2026-04-23 01:31 -19.57951 -44.01941 3923 ft 143 kts 136°
2026-04-23 01:31 -19.58705 -44.01239 3756 ft 144 kts 136°
2026-04-23 01:31 -19.59458 -44.00535 3566 ft 145 kts 136°
2026-04-23 01:32 -19.60211 -43.99831 3383 ft 144 kts 137°
2026-04-23 01:32 -19.60960 -43.99134 3197 ft 147 kts 138°
2026-04-23 01:32 -19.61728 -43.98415 3015 ft 147 kts 138°
2026-04-23 01:32 -19.62478 -43.97704 2812 ft 136 kts 139°
2026-04-23 01:33 -19.63043 -43.97178 2810 ft 51 kts 139°
2026-04-23 01:33 -19.63297 -43.96944 2806 ft 39 kts 139°
2026-04-23 01:33 -19.63482 -43.96773 2805 ft 25 kts 139°
2026-04-23 01:33 -19.63571 -43.96637 2806 ft 21 kts 114°
2026-04-23 01:34 -19.63616 -43.96512 2804 ft 15 kts 107°
2026-04-23 01:34 -19.63603 -43.96450 2804 ft 1 kts 53°
2026-04-23 01:34 -19.63604 -43.96440 2804 ft 1 kts 104°
2026-04-23 01:34 -19.63609 -43.96432 2804 ft 2 kts 124°
2026-04-23 01:35 -19.63624 -43.96393 2807 ft 9 kts 94°
2026-04-23 01:35 -19.63579 -43.96341 2805 ft 11 kts 30°
2026-04-23 01:35 -19.63506 -43.96298 2804 ft 12 kts 28°
2026-04-23 01:35 -19.63435 -43.96307 2807 ft 12 kts 307°
2026-04-23 01:36 -19.63391 -43.96389 2807 ft 13 kts 298°
2026-04-23 01:36 -19.63326 -43.96466 2807 ft 14 kts 320°
2026-04-23 01:36 -19.63251 -43.96535 2807 ft 12 kts 319°
2026-04-23 01:36 -19.63190 -43.96590 2804 ft 11 kts 319°
2026-04-23 01:37 -19.63128 -43.96646 2804 ft 8 kts 322°
2026-04-23 01:37 -19.63083 -43.96628 2804 ft 8 kts 48°
2026-04-23 01:37 -19.63077 -43.96620 2804 ft 0 kts 49°